TimeMDT,TemperatureF,Dew PointF,Humidity,Sea Level PressureIn,VisibilityMPH,Wind Direction,Wind SpeedMPH,Gust SpeedMPH,PrecipitationIn,Events,Conditions,WindDirDegrees,DateUTC
12:15 AM,21.2,19.4,93,-9999,-9999.0,NNW,26.5,33.4,N/A,,Unknown,330,2014-03-18 06:15:00
12:35 AM,21.2,19.4,93,-9999,-9999.0,NNW,24.2,36.8,N/A,,Unknown,330,2014-03-18 06:35:00
12:55 AM,21.2,19.4,93,-9999,-9999.0,NNW,31.1,39.1,N/A,,Unknown,340,2014-03-18 06:55:00
1:15 AM,21.2,17.6,86,-9999,-9999.0,North,26.5,43.7,N/A,,Overcast,350,2014-03-18 07:15:00
1:35 AM,21.2,17.6,86,-9999,-9999.0,North,23.0,41.4,N/A,,Unknown,350,2014-03-18 07:35:00
1:55 AM,21.2,19.4,93,-9999,-9999.0,NNW,24.2,41.4,N/A,,Overcast,340,2014-03-18 07:55:00
2:15 AM,21.2,19.4,93,-9999,-9999.0,North,21.9,34.5,N/A,,Overcast,350,2014-03-18 08:15:00
2:35 AM,19.4,17.6,93,-9999,-9999.0,North,23.0,36.8,N/A,,Overcast,350,2014-03-18 08:35:00
2:55 AM,19.4,17.6,93,-9999,-9999.0,North,23.0,32.2,N/A,,Overcast,350,2014-03-18 08:55:00
3:15 AM,19.4,17.6,93,-9999,-9999.0,North,23.0,35.7,N/A,,Overcast,350,2014-03-18 09:15:00
3:35 AM,19.4,17.6,93,-9999,-9999.0,North,20.7,34.5,N/A,,Overcast,350,2014-03-18 09:35:00
3:55 AM,19.4,17.6,93,-9999,-9999.0,North,19.6,26.5,N/A,,Overcast,350,2014-03-18 09:55:00
4:15 AM,19.4,17.6,93,-9999,-9999.0,North,18.4,31.1,N/A,,Overcast,360,2014-03-18 10:15:00
4:35 AM,19.4,17.6,93,-9999,-9999.0,North,15.0,23.0,N/A,,Overcast,350,2014-03-18 10:35:00
4:55 AM,19.4,17.6,93,-9999,-9999.0,North,17.3,27.6,N/A,,Overcast,360,2014-03-18 10:55:00
5:15 AM,19.4,17.6,93,-9999,-9999.0,North,23.0,28.8,N/A,,Overcast,360,2014-03-18 11:15:00
5:35 AM,19.4,17.6,93,-9999,-9999.0,North,17.3,25.3,N/A,,Overcast,360,2014-03-18 11:35:00
5:55 AM,19.4,17.6,93,-9999,-9999.0,North,17.3,25.3,N/A,,Overcast,350,2014-03-18 11:55:00
6:15 AM,19.4,17.6,93,-9999,-9999.0,North,13.8,24.2,N/A,,Overcast,350,2014-03-18 12:15:00
6:35 AM,19.4,17.6,93,-9999,-9999.0,North,18.4,24.2,N/A,,Overcast,360,2014-03-18 12:35:00
6:55 AM,19.4,17.6,93,-9999,-9999.0,North,17.3,26.5,N/A,,Unknown,360,2014-03-18 12:55:00
7:15 AM,19.4,17.6,93,-9999,-9999.0,North,17.3,25.3,N/A,,Unknown,360,2014-03-18 13:15:00
7:35 AM,19.4,17.6,93,-9999,-9999.0,North,16.1,24.2,N/A,,Unknown,360,2014-03-18 13:35:00
7:55 AM,19.4,17.6,93,-9999,-9999.0,North,18.4,24.2,N/A,,Unknown,360,2014-03-18 13:55:00
8:15 AM,19.4,17.6,93,-9999,-9999.0,North,25.3,33.4,N/A,,Unknown,350,2014-03-18 14:15:00
8:35 AM,19.4,17.6,93,-9999,-9999.0,North,21.9,27.6,N/A,,Unknown,360,2014-03-18 14:35:00
8:55 AM,19.4,17.6,93,-9999,-9999.0,North,18.4,25.3,N/A,,Unknown,350,2014-03-18 14:55:00
9:15 AM,21.2,17.6,86,-9999,-9999.0,North,21.9,28.8,N/A,,Unknown,350,2014-03-18 15:15:00
9:35 AM,21.2,17.6,86,-9999,-9999.0,North,16.1,24.2,N/A,,Unknown,360,2014-03-18 15:35:00
9:55 AM,21.2,17.6,86,-9999,-9999.0,North,13.8,19.6,N/A,,Unknown,360,2014-03-18 15:55:00
10:15 AM,21.2,17.6,86,-9999,-9999.0,North,13.8,21.9,N/A,,Unknown,360,2014-03-18 16:15:00
10:35 AM,21.2,17.6,86,-9999,-9999.0,North,12.7,20.7,N/A,,Unknown,360,2014-03-18 16:35:00
10:55 AM,21.2,17.6,86,-9999,-9999.0,North,10.4,-,N/A,,Unknown,360,2014-03-18 16:55:00
11:15 AM,23.0,19.4,86,-9999,-9999.0,NNE,10.4,-,N/A,,Overcast,30,2014-03-18 17:15:00
11:35 AM,24.8,19.4,80,-9999,-9999.0,NNE,10.4,-,N/A,,Overcast,30,2014-03-18 17:35:00
11:55 AM,23.0,17.6,80,-9999,-9999.0,North,11.5,17.3,N/A,,Mostly Cloudy,10,2014-03-18 17:55:00
12:15 PM,23.0,14.0,68,29.86,-9999.0,NNE,13.8,-,N/A,,Scattered Clouds,30,2014-03-18 18:15:00
12:35 PM,23.0,14.0,68,-9999,-9999.0,NE,13.8,-,N/A,,Scattered Clouds,40,2014-03-18 18:35:00
12:55 PM,23.0,14.0,68,-9999,-9999.0,NNE,12.7,17.3,N/A,,Mostly Cloudy,30,2014-03-18 18:55:00
1:15 PM,23.0,14.0,68,-9999,-9999.0,NE,11.5,-,N/A,,Overcast,40,2014-03-18 19:15:00
1:35 PM,21.2,15.8,80,-9999,-9999.0,NNE,9.2,-,N/A,,Overcast,30,2014-03-18 19:35:00
1:55 PM,21.2,17.6,86,-9999,-9999.0,NNE,5.8,-,N/A,,Overcast,20,2014-03-18 19:55:00
2:15 PM,21.2,17.6,86,-9999,-9999.0,ENE,6.9,-,N/A,,Unknown,60,2014-03-18 20:15:00
2:35 PM,23.0,17.6,80,-9999,1.8,NE,6.9,-,N/A,Snow,Light Snow,40,2014-03-18 20:35:00
2:55 PM,21.2,17.6,86,-9999,2.0,NE,5.8,-,N/A,Snow,Light Snow,50,2014-03-18 20:55:00
3:15 PM,21.2,17.6,86,-9999,1.2,NE,4.6,-,N/A,Snow,Light Snow,50,2014-03-18 21:15:00
3:35 PM,19.4,17.6,93,-9999,0.2,East,4.6,-,N/A,Snow,Snow,80,2014-03-18 21:35:00
3:55 PM,21.2,17.6,86,-9999,0.8,East,3.5,-,N/A,Snow,Light Snow,90,2014-03-18 21:55:00
4:15 PM,21.2,17.6,86,-9999,0.2,Calm,Calm,-,N/A,Snow,Snow,0,2014-03-18 22:15:00
4:35 PM,21.2,19.4,93,-9999,0.5,SSE,6.9,-,N/A,Snow,Snow,160,2014-03-18 22:35:00
4:55 PM,19.4,17.6,93,-9999,0.2,SSE,6.9,-,N/A,Snow,Snow,160,2014-03-18 22:55:00
5:15 PM,21.2,19.4,93,-9999,0.2,South,4.6,-,N/A,Snow,Snow,180,2014-03-18 23:15:00
5:35 PM,19.4,17.6,93,-9999,2.5,South,4.6,-,N/A,Snow,Light Snow,180,2014-03-18 23:35:00
5:55 PM,19.4,19.4,100,-9999,0.2,South,4.6,-,N/A,Snow,Snow,180,2014-03-18 23:55:00
6:15 PM,19.4,17.6,93,-9999,1.2,SSW,3.5,-,N/A,Snow,Light Snow,200,2014-03-19 00:15:00
6:35 PM,19.4,17.6,93,-9999,7.0,Calm,Calm,-,N/A,Snow,Light Snow,0,2014-03-19 00:35:00
6:55 PM,19.4,17.6,93,-9999,0.8,SSW,3.5,-,N/A,Snow,Light Snow,200,2014-03-19 00:55:00
7:15 PM,19.4,17.6,93,-9999,0.2,SW,4.6,-,N/A,Snow,Snow,220,2014-03-19 01:15:00
7:35 PM,17.6,17.6,100,-9999,1.5,SW,6.9,-,N/A,Snow,Light Snow,220,2014-03-19 01:35:00
7:55 PM,17.6,17.6,100,-9999,3.0,SW,4.6,-,N/A,Snow,Light Snow,230,2014-03-19 01:55:00
8:15 PM,17.6,17.6,100,-9999,10.0,SW,4.6,-,N/A,Snow,Light Snow,230,2014-03-19 02:15:00
8:35 PM,17.6,17.6,100,-9999,10.0,SW,5.8,-,N/A,,Mostly Cloudy,230,2014-03-19 02:35:00
8:55 PM,17.6,15.8,93,-9999,10.0,WSW,4.6,-,N/A,,Mostly Cloudy,250,2014-03-19 02:55:00
9:15 PM,17.6,15.8,93,-9999,10.0,West,5.8,-,N/A,,Scattered Clouds,260,2014-03-19 03:15:00
9:35 PM,17.6,17.6,100,-9999,10.0,WSW,5.8,-,N/A,,Clear,250,2014-03-19 03:35:00
9:55 PM,17.6,15.8,93,-9999,10.0,WSW,6.9,-,N/A,,Clear,250,2014-03-19 03:55:00
10:15 PM,17.6,14.0,86,-9999,10.0,WSW,5.8,-,N/A,,Clear,250,2014-03-19 04:15:00
10:35 PM,17.6,14.0,86,-9999,10.0,WSW,4.6,-,N/A,,Clear,240,2014-03-19 04:35:00
10:55 PM,17.6,12.2,79,-9999,10.0,West,3.5,-,N/A,,Clear,260,2014-03-19 04:55:00
11:15 PM,19.4,10.4,68,-9999,10.0,Calm,Calm,-,N/A,,Clear,0,2014-03-19 05:15:00
11:35 PM,17.6,10.4,73,-9999,10.0,NNW,4.6,-,N/A,,Clear,340,2014-03-19 05:35:00
11:55 PM,19.4,10.4,68,-9999,10.0,NW,3.5,-,N/A,,Clear,320,2014-03-19 05:55:00